Вернуться в каталог

ONEWEB-0637

АктивенСвязьPO
NORAD 56078·PAYLOAD·🇬🇧 United Kingdom

Запущен Mar 26, 2023 с Satish Dhawan Space Centre

Loading…

Ближайшие Пролёты (ближайшие 24 часа)

TLE

СвежийSource: CelesTrak SupGP

Эпоха: Sep 15, 2026, 03:05 UTC

1 56078C 23043AJ  26258.12862685 -.00002339  00000+0 -62215-2 0  2583
2 56078  87.8980 241.2783 0002063  94.1231  14.4589 13.15548984    16

Отслеживайте ONEWEB-0637 в реальном времени с AllMySat

Download on the App Store